Saint Bonnet de Bellac- Haute Vienne - France
Donnes mto: vendredi, 27/01/2012
Date Horaire Temp. E. Hum. E. P.atmo. Pluie Vent Direction Direction Ensoleilleme Solaire P. de rose Temp au vent Rafales
27/01/2012 00:00 3,8 C 95 % 1019,2 hPa 0,0 mm 0,0 km/h (0 Bft) S-SO 202 0 min 0 W/m 3,1 C 3,8 C 0,0 km/h (0 Bft)
27/01/2012 00:10 3,8 C 95 % 1019,4 hPa 0,0 mm 0,0 km/h (0 Bft) S-SO 202 0 min 0 W/m 3,1 C 3,8 C 0,0 km/h (0 Bft)
27/01/2012 00:20 3,6 C 95 % 1019,4 hPa 0,0 mm 0,0 km/h (0 Bft) S-SO 202 0 min 0 W/m 2,9 C 3,6 C 0,0 km/h (0 Bft)
27/01/2012 00:30 3,5 C 94 % 1019,4 hPa 0,0 mm 0,0 km/h (0 Bft) S-SO 202 0 min 0 W/m 2,6 C 3,5 C 0,0 km/h (0 Bft)
27/01/2012 00:40 3,4 C 94 % 1019,5 hPa 0,0 mm 0,0 km/h (0 Bft) S-SO 202 0 min 0 W/m 2,5 C 3,4 C 0,0 km/h (0 Bft)
27/01/2012 00:50 3,4 C 94 % 1019,5 hPa 0,0 mm 0,0 km/h (0 Bft) S-SO 202 0 min 0 W/m 2,5 C 3,4 C 0,0 km/h (0 Bft)
27/01/2012 01:00 3,3 C 94 % 1019,6 hPa 0,0 mm 0,0 km/h (0 Bft) S-SO 202 0 min 0 W/m 2,4 C 3,3 C 0,0 km/h (0 Bft)
27/01/2012 01:10 3,2 C 94 % 1019,6 hPa 0,0 mm 0,0 km/h (0 Bft) S-SO 202 0 min 0 W/m 2,3 C 3,2 C 0,0 km/h (0 Bft)
27/01/2012 01:20 3,1 C 94 % 1019,7 hPa 0,0 mm 0,0 km/h (0 Bft) S-SO 202 0 min 0 W/m 2,2 C 3,1 C 0,0 km/h (0 Bft)
27/01/2012 01:30 2,9 C 94 % 1019,7 hPa 0,0 mm 0,0 km/h (0 Bft) S-SO 202 0 min 0 W/m 2,0 C 2,9 C 0,0 km/h (0 Bft)
27/01/2012 01:40 2,7 C 94 % 1019,6 hPa 0,0 mm 0,0 km/h (0 Bft) S-SO 202 0 min 0 W/m 1,8 C 2,7 C 0,0 km/h (0 Bft)
27/01/2012 01:50 2,6 C 95 % 1019,7 hPa 0,0 mm 0,0 km/h (0 Bft) S-SO 202 0 min 0 W/m 1,9 C 2,6 C 0,0 km/h (0 Bft)
27/01/2012 02:02 2,5 C 95 % 1019,8 hPa 0,0 mm 0,0 km/h (0 Bft) S-SO 202 0 min 0 W/m 1,8 C 2,5 C 0,0 km/h (0 Bft)
27/01/2012 02:10 2,4 C 95 % 1019,7 hPa 0,0 mm 0,0 km/h (0 Bft) S-SO 202 0 min 0 W/m 1,7 C 2,4 C 0,0 km/h (0 Bft)
27/01/2012 02:20 2,3 C 95 % 1019,8 hPa 0,0 mm 0,0 km/h (0 Bft) S-SO 202 0 min 0 W/m 1,6 C 2,3 C 0,0 km/h (0 Bft)
27/01/2012 02:30 2,1 C 95 % 1020,0 hPa 0,0 mm 0,0 km/h (0 Bft) S-SO 202 0 min 0 W/m 1,4 C 2,1 C 0,0 km/h (0 Bft)
27/01/2012 02:40 1,9 C 95 % 1020,1 hPa 0,0 mm 0,0 km/h (0 Bft) S-SO 202 0 min 0 W/m 1,2 C 1,9 C 0,0 km/h (0 Bft)
27/01/2012 02:50 1,8 C 95 % 1020,1 hPa 0,0 mm 0,0 km/h (0 Bft) S-SO 202 0 min 0 W/m 1,1 C 1,8 C 0,0 km/h (0 Bft)
27/01/2012 03:00 1,6 C 95 % 1020,1 hPa 0,0 mm 0,0 km/h (0 Bft) S-SO 202 0 min 0 W/m 0,9 C 1,6 C 0,0 km/h (0 Bft)
27/01/2012 03:10 1,5 C 95 % 1020,1 hPa 0,0 mm 0,0 km/h (0 Bft) S-SO 202 0 min 0 W/m 0,8 C 1,5 C 0,0 km/h (0 Bft)
27/01/2012 03:20 1,4 C 95 % 1020,1 hPa 0,0 mm 0,0 km/h (0 Bft) S-SO 202 0 min 0 W/m 0,7 C 1,4 C 0,0 km/h (0 Bft)
27/01/2012 03:30 1,4 C 95 % 1020,2 hPa 0,0 mm 0,0 km/h (0 Bft) S-SO 202 0 min 0 W/m 0,7 C 1,4 C 0,0 km/h (0 Bft)
27/01/2012 03:40 1,3 C 95 % 1020,2 hPa 0,0 mm 0,0 km/h (0 Bft) S-SO 202 0 min 0 W/m 0,6 C 1,3 C 0,0 km/h (0 Bft)
27/01/2012 03:50 1,1 C 95 % 1020,3 hPa 0,0 mm 0,0 km/h (0 Bft) S-SO 202 0 min 0 W/m 0,4 C 1,1 C 0,0 km/h (0 Bft)
27/01/2012 04:00 1,2 C 95 % 1020,4 hPa 0,0 mm 0,0 km/h (0 Bft) S-SO 202 0 min 0 W/m 0,5 C 1,2 C 0,0 km/h (0 Bft)
27/01/2012 04:10 0,9 C 95 % 1020,4 hPa 0,0 mm 0,0 km/h (0 Bft) S-SO 202 0 min 0 W/m 0,2 C 0,9 C 0,0 km/h (0 Bft)
27/01/2012 04:20 0,8 C 95 % 1020,4 hPa 0,0 mm 0,0 km/h (0 Bft) S-SO 202 0 min 0 W/m 0,1 C 0,8 C 0,0 km/h (0 Bft)
27/01/2012 04:30 0,9 C 95 % 1020,3 hPa 0,1 mm 0,0 km/h (0 Bft) S-SO 202 0 min 0 W/m 0,2 C 0,9 C 0,0 km/h (0 Bft)
27/01/2012 04:40 0,8 C 95 % 1020,4 hPa 0,0 mm 0,0 km/h (0 Bft) S-SO 202 0 min 0 W/m 0,1 C 0,8 C 0,0 km/h (0 Bft)
27/01/2012 04:50 0,5 C 95 % 1020,5 hPa 0,0 mm 0,0 km/h (0 Bft) S-SO 202 0 min 0 W/m -0,2 C 0,5 C 0,0 km/h (0 Bft)
27/01/2012 05:00 0,3 C 95 % 1020,5 hPa 0,0 mm 0,0 km/h (0 Bft) N 360 0 min 0 W/m -0,4 C 0,3 C 0,0 km/h (0 Bft)
27/01/2012 05:10 0,3 C 95 % 1020,6 hPa 0,0 mm 0,0 km/h (0 Bft) E-SE 112 0 min 0 W/m -0,4 C 0,3 C 0,0 km/h (0 Bft)
27/01/2012 05:20 0,2 C 94 % 1020,6 hPa 0,0 mm 0,0 km/h (0 Bft) E-SE 112 0 min 0 W/m -0,6 C 0,2 C 0,0 km/h (0 Bft)
27/01/2012 05:30 0,1 C 94 % 1020,8 hPa 0,0 mm 0,0 km/h (0 Bft) E-SE 112 0 min 0 W/m -0,7 C 0,1 C 0,0 km/h (0 Bft)
27/01/2012 05:40 0,0 C 94 % 1020,7 hPa 0,0 mm 0,0 km/h (0 Bft) E-SE 112 0 min 0 W/m -0,8 C 0,0 C 0,0 km/h (0 Bft)
27/01/2012 05:50 -0,1 C 94 % 1020,8 hPa 0,0 mm 0,0 km/h (0 Bft) E-SE 112 0 min 0 W/m -0,9 C -0,1 C 0,0 km/h (0 Bft)
27/01/2012 06:00 -0,2 C 94 % 1020,8 hPa 0,0 mm 0,0 km/h (0 Bft) E-SE 112 0 min 0 W/m -1,0 C -0,2 C 0,0 km/h (0 Bft)
27/01/2012 06:10 -0,2 C 94 % 1020,9 hPa 0,0 mm 0,0 km/h (0 Bft) E-SE 112 0 min 0 W/m -1,0 C -0,2 C 0,0 km/h (0 Bft)
27/01/2012 06:20 -0,3 C 94 % 1021,0 hPa 0,0 mm 0,0 km/h (0 Bft) E-SE 112 0 min 0 W/m -1,1 C -0,3 C 0,0 km/h (0 Bft)
27/01/2012 06:30 -0,5 C 94 % 1021,1 hPa 0,0 mm 0,0 km/h (0 Bft) E-SE 112 0 min 0 W/m -1,3 C -0,5 C 0,0 km/h (0 Bft)
27/01/2012 06:40 -0,7 C 94 % 1021,2 hPa 0,0 mm 0,0 km/h (0 Bft) E-SE 112 0 min 0 W/m -1,5 C -0,7 C 0,0 km/h (0 Bft)
27/01/2012 06:50 -0,7 C 95 % 1021,2 hPa 0,0 mm 0,0 km/h (0 Bft) E-SE 112 0 min 0 W/m -1,4 C -0,7 C 0,0 km/h (0 Bft)
27/01/2012 07:00 -0,7 C 95 % 1021,3 hPa 0,0 mm 0,0 km/h (0 Bft) E-SE 112 0 min 0 W/m -1,4 C -0,7 C 0,0 km/h (0 Bft)
27/01/2012 07:10 -0,8 C 95 % 1021,3 hPa 0,0 mm 0,0 km/h (0 Bft) E-SE 112 0 min 0 W/m -1,5 C -0,8 C 0,0 km/h (0 Bft)
27/01/2012 07:20 -0,9 C 95 % 1021,6 hPa 0,0 mm 0,0 km/h (0 Bft) E-SE 112 0 min 0 W/m -1,6 C -0,9 C 0,0 km/h (0 Bft)
27/01/2012 07:30 -0,9 C 95 % 1021,7 hPa 0,0 mm 0,0 km/h (0 Bft) E-SE 112 0 min 0 W/m -1,6 C -0,9 C 0,0 km/h (0 Bft)
27/01/2012 07:40 -1,1 C 95 % 1021,8 hPa 0,0 mm 2,9 km/h (1 Bft) E-SE 112 0 min 0 W/m -1,8 C -1,1 C 4,3 km/h (1 Bft)
27/01/2012 07:50 -0,9 C 95 % 1021,9 hPa 0,0 mm 0,0 km/h (0 Bft) E-SE 112 0 min 0 W/m -1,6 C -0,9 C 0,0 km/h (0 Bft)
27/01/2012 08:00 -0,8 C 95 % 1022,0 hPa 0,0 mm 1,1 km/h (1 Bft) E-SE 112 0 min 0 W/m -1,5 C -0,8 C 1,1 km/h (1 Bft)
27/01/2012 08:10 -0,9 C 95 % 1022,0 hPa 0,0 mm 0,0 km/h (0 Bft) E-SE 112 0 min 0 W/m -1,6 C -0,9 C 0,0 km/h (0 Bft)
27/01/2012 08:20 -1,1 C 95 % 1022,0 hPa 0,0 mm 0,0 km/h (0 Bft) E-SE 112 0 min 0 W/m -1,8 C -1,1 C 2,9 km/h (1 Bft)
27/01/2012 08:30 -1,1 C 95 % 1022,0 hPa 0,0 mm 0,4 km/h (0 Bft) E-SE 112 0 min 0 W/m -1,8 C -1,1 C 0,4 km/h (0 Bft)
27/01/2012 08:40 -1,1 C 95 % 1022,1 hPa 0,0 mm 1,8 km/h (1 Bft) E-SE 112 2 min 0 W/m -1,8 C -1,1 C 3,6 km/h (1 Bft)
27/01/2012 08:50 -1,1 C 95 % 1022,2 hPa 0,0 mm 0,0 km/h (0 Bft) E-SE 112 2 min 0 W/m -1,8 C -1,1 C 0,0 km/h (0 Bft)
27/01/2012 09:00 -1,1 C 95 % 1022,2 hPa 0,0 mm 0,4 km/h (0 Bft) E-SE 112 2 min 0 W/m -1,8 C -1,1 C 3,6 km/h (1 Bft)
27/01/2012 09:10 -1,1 C 95 % 1022,4 hPa 0,0 mm 0,0 km/h (0 Bft) E-SE 112 2 min 0 W/m -1,8 C -1,1 C 0,0 km/h (0 Bft)
27/01/2012 09:20 -1,1 C 95 % 1022,4 hPa 0,0 mm 0,0 km/h (0 Bft) E-SE 112 2 min 0 W/m -1,8 C -1,1 C 0,0 km/h (0 Bft)
27/01/2012 09:30 -0,9 C 95 % 1022,5 hPa 0,0 mm 0,0 km/h (0 Bft) E-SE 112 2 min 0 W/m -1,6 C -0,9 C 0,0 km/h (0 Bft)
27/01/2012 09:40 -0,7 C 95 % 1022,4 hPa 0,0 mm 0,0 km/h (0 Bft) E-SE 112 2 min 0 W/m -1,4 C -0,7 C 0,0 km/h (0 Bft)
27/01/2012 09:50 -0,6 C 95 % 1022,7 hPa 0,0 mm 0,0 km/h (0 Bft) E-SE 112 2 min 0 W/m -1,3 C -0,6 C 0,0 km/h (0 Bft)
27/01/2012 10:00 -0,2 C 95 % 1022,9 hPa 0,0 mm 0,4 km/h (0 Bft) E-SE 112 2 min 0 W/m -0,9 C -0,2 C 3,2 km/h (1 Bft)
27/01/2012 10:10 0,1 C 95 % 1023,3 hPa 0,0 mm 0,0 km/h (0 Bft) E-SE 112 2 min 0 W/m -0,6 C 0,1 C 0,0 km/h (0 Bft)
27/01/2012 10:20 0,6 C 95 % 1023,4 hPa 0,0 mm 0,0 km/h (0 Bft) E-SE 112 2 min 0 W/m -0,1 C 0,6 C 0,0 km/h (0 Bft)
27/01/2012 10:30 1,1 C 95 % 1023,3 hPa 0,0 mm 0,0 km/h (0 Bft) E-SE 112 2 min 0 W/m 0,4 C 1,1 C 0,0 km/h (0 Bft)
27/01/2012 10:40 1,3 C 95 % 1023,5 hPa 0,0 mm 0,0 km/h (0 Bft) E-SE 112 2 min 0 W/m 0,6 C 1,3 C 0,0 km/h (0 Bft)
27/01/2012 10:50 1,5 C 95 % 1023,6 hPa 0,0 mm 0,0 km/h (0 Bft) E-SE 112 2 min 0 W/m 0,8 C 1,5 C 0,0 km/h (0 Bft)
27/01/2012 11:00 1,9 C 95 % 1023,7 hPa 0,0 mm 0,0 km/h (0 Bft) E-SE 112 2 min 0 W/m 1,2 C 1,9 C 0,0 km/h (0 Bft)
27/01/2012 11:10 2,4 C 95 % 1023,7 hPa 0,0 mm 0,0 km/h (0 Bft) E-SE 112 2 min 0 W/m 1,7 C 2,4 C 0,0 km/h (0 Bft)
27/01/2012 11:20 2,8 C 95 % 1023,9 hPa 0,0 mm 0,0 km/h (0 Bft) E-SE 112 2 min 0 W/m 2,1 C 2,8 C 0,0 km/h (0 Bft)
27/01/2012 11:30 3,2 C 95 % 1024,0 hPa 0,0 mm 0,0 km/h (0 Bft) E-SE 112 2 min 0 W/m 2,5 C 3,2 C 0,0 km/h (0 Bft)
27/01/2012 11:40 3,6 C 95 % 1024,0 hPa 0,0 mm 0,0 km/h (0 Bft) E-SE 112 2 min 0 W/m 2,9 C 3,6 C 0,0 km/h (0 Bft)
27/01/2012 11:50 3,8 C 95 % 1024,0 hPa 0,0 mm 0,0 km/h (0 Bft) E-SE 112 2 min 0 W/m 3,1 C 3,8 C 0,0 km/h (0 Bft)
27/01/2012 12:00 4,4 C 95 % 1024,0 hPa 0,0 mm 0,0 km/h (0 Bft) E-SE 112 2 min 0 W/m 3,7 C 4,4 C 0,0 km/h (0 Bft)
27/01/2012 12:10 4,8 C 95 % 1024,0 hPa 0,0 mm 0,0 km/h (0 Bft) E-SE 112 2 min 0 W/m 4,1 C 4,8 C 0,0 km/h (0 Bft)
27/01/2012 12:20 5,2 C 95 % 1023,9 hPa 0,0 mm 0,0 km/h (0 Bft) SE 135 2 min 0 W/m 4,5 C 5,2 C 0,0 km/h (0 Bft)
27/01/2012 12:30 5,6 C 95 % 1023,9 hPa 0,0 mm 0,0 km/h (0 Bft) SE 135 2 min 0 W/m 4,9 C 5,6 C 0,0 km/h (0 Bft)
27/01/2012 12:40 6,2 C 95 % 1023,9 hPa 0,0 mm 0,0 km/h (0 Bft) SE 135 2 min 0 W/m 5,5 C 6,2 C 0,0 km/h (0 Bft)
27/01/2012 12:50 6,6 C 94 % 1023,7 hPa 0,0 mm 0,0 km/h (0 Bft) S-SO 202 2 min 0 W/m 5,7 C 6,6 C 0,0 km/h (0 Bft)
27/01/2012 13:00 6,8 C 93 % 1023,6 hPa 0,0 mm 0,0 km/h (0 Bft) SO 225 2 min 0 W/m 5,7 C 6,8 C 0,0 km/h (0 Bft)
27/01/2012 13:10 6,8 C 93 % 1023,5 hPa 0,0 mm 0,0 km/h (0 Bft) O 270 2 min 0 W/m 5,7 C 6,8 C 0,0 km/h (0 Bft)
27/01/2012 13:20 6,8 C 93 % 1023,4 hPa 0,0 mm 1,8 km/h (1 Bft) O-NO 292 2 min 0 W/m 5,7 C 6,8 C 4,0 km/h (1 Bft)
27/01/2012 13:30 6,8 C 92 % 1023,4 hPa 0,0 mm 0,0 km/h (0 Bft) SO 225 2 min 0 W/m 5,6 C 6,8 C 0,0 km/h (0 Bft)
27/01/2012 13:40 6,9 C 92 % 1023,5 hPa 0,0 mm 0,0 km/h (0 Bft) O 270 2 min 0 W/m 5,7 C 6,9 C 2,9 km/h (1 Bft)
27/01/2012 13:50 7,2 C 92 % 1023,5 hPa 0,0 mm 1,8 km/h (1 Bft) NO 315 2 min 0 W/m 6,0 C 7,2 C 4,0 km/h (1 Bft)
27/01/2012 14:00 7,3 C 91 % 1023,5 hPa 0,0 mm 1,4 km/h (1 Bft) O 270 2 min 0 W/m 5,9 C 7,3 C 3,2 km/h (1 Bft)
27/01/2012 14:10 7,3 C 90 % 1023,4 hPa 0,0 mm 0,0 km/h (0 Bft) O-SO 247 2 min 0 W/m 5,8 C 7,3 C 0,0 km/h (0 Bft)
27/01/2012 14:20 7,4 C 89 % 1023,3 hPa 0,0 mm 0,7 km/h (0 Bft) O 270 2 min 0 W/m 5,7 C 7,4 C 4,3 km/h (1 Bft)
27/01/2012 14:30 7,8 C 89 % 1023,3 hPa 0,0 mm 0,0 km/h (0 Bft) O 270 2 min 0 W/m 6,1 C 7,8 C 0,0 km/h (0 Bft)
27/01/2012 14:40 7,9 C 88 % 1023,3 hPa 0,0 mm 0,0 km/h (0 Bft) O 270 2 min 0 W/m 6,0 C 7,9 C 0,0 km/h (0 Bft)
27/01/2012 14:50 8,4 C 87 % 1023,3 hPa 0,0 mm 1,4 km/h (1 Bft) O-SO 247 2 min 0 W/m 6,4 C 8,4 C 4,3 km/h (1 Bft)
27/01/2012 15:00 8,6 C 87 % 1023,5 hPa 0,0 mm 0,0 km/h (0 Bft) O-SO 247 2 min 0 W/m 6,6 C 8,6 C 0,0 km/h (0 Bft)
27/01/2012 15:10 8,8 C 86 % 1023,6 hPa 0,0 mm 1,4 km/h (1 Bft) O-NO 292 2 min 0 W/m 6,6 C 8,8 C 1,4 km/h (1 Bft)
27/01/2012 15:20 8,8 C 85 % 1023,7 hPa 0,0 mm 0,0 km/h (0 Bft) NO 315 2 min 0 W/m 6,4 C 8,8 C 0,0 km/h (0 Bft)
27/01/2012 15:30 8,8 C 86 % 1023,6 hPa 0,0 mm 0,0 km/h (0 Bft) NO 315 2 min 0 W/m 6,6 C 8,8 C 0,0 km/h (0 Bft)
27/01/2012 15:40 8,8 C 85 % 1023,4 hPa 0,0 mm 0,0 km/h (0 Bft) NO 315 2 min 0 W/m 6,4 C 8,8 C 0,0 km/h (0 Bft)
27/01/2012 15:50 8,5 C 84 % 1023,4 hPa 0,0 mm 0,0 km/h (0 Bft) NO 315 2 min 0 W/m 6,0 C 8,5 C 0,0 km/h (0 Bft)
27/01/2012 16:00 8,4 C 85 % 1023,5 hPa 0,0 mm 0,0 km/h (0 Bft) NO 315 2 min 0 W/m 6,0 C 8,4 C 0,0 km/h (0 Bft)
27/01/2012 16:10 8,3 C 85 % 1023,5 hPa 0,0 mm 0,0 km/h (0 Bft) NO 315 2 min 0 W/m 5,9 C 8,3 C 0,0 km/h (0 Bft)
27/01/2012 16:20 8,2 C 85 % 1023,6 hPa 0,0 mm 0,0 km/h (0 Bft) NO 315 2 min 0 W/m 5,8 C 8,2 C 0,0 km/h (0 Bft)
27/01/2012 16:30 8,0 C 84 % 1023,5 hPa 0,0 mm 0,0 km/h (0 Bft) NO 315 2 min 0 W/m 5,5 C 8,0 C 0,0 km/h (0 Bft)
27/01/2012 16:40 7,8 C 85 % 1023,5 hPa 0,0 mm 0,0 km/h (0 Bft) NO 315 2 min 0 W/m 5,4 C 7,8 C 0,0 km/h (0 Bft)
27/01/2012 16:50 7,7 C 83 % 1023,6 hPa 0,0 mm 1,8 km/h (1 Bft) S-SO 202 2 min 0 W/m 5,0 C 7,7 C 4,3 km/h (1 Bft)
27/01/2012 17:00 7,6 C 83 % 1023,5 hPa 0,0 mm 0,7 km/h (0 Bft) S 180 2 min 0 W/m 4,9 C 7,6 C 0,7 km/h (0 Bft)
27/01/2012 17:10 7,6 C 82 % 1023,4 hPa 0,0 mm 1,1 km/h (1 Bft) S 180 2 min 0 W/m 4,7 C 7,6 C 3,6 km/h (1 Bft)
27/01/2012 17:20 7,4 C 82 % 1023,5 hPa 0,0 mm 0,0 km/h (0 Bft) O 270 2 min 0 W/m 4,5 C 7,4 C 2,9 km/h (1 Bft)
27/01/2012 17:30 7,1 C 82 % 1023,6 hPa 0,0 mm 0,0 km/h (0 Bft) O-SO 247 2 min 0 W/m 4,2 C 7,1 C 0,0 km/h (0 Bft)
27/01/2012 17:40 6,8 C 82 % 1023,7 hPa 0,0 mm 0,0 km/h (0 Bft) O-SO 247 2 min 0 W/m 3,9 C 6,8 C 0,0 km/h (0 Bft)
27/01/2012 17:50 6,5 C 83 % 1023,6 hPa 0,0 mm 0,0 km/h (0 Bft) O-SO 247 0 min 0 W/m 3,8 C 6,5 C 0,0 km/h (0 Bft)
27/01/2012 18:00 6,1 C 84 % 1023,7 hPa 0,0 mm 0,0 km/h (0 Bft) O-SO 247 0 min 0 W/m 3,6 C 6,1 C 0,0 km/h (0 Bft)
27/01/2012 18:10 5,7 C 84 % 1023,7 hPa 0,0 mm 0,0 km/h (0 Bft) O-SO 247 0 min 0 W/m 3,2 C 5,7 C 0,0 km/h (0 Bft)
27/01/2012 18:20 5,3 C 85 % 1023,9 hPa 0,0 mm 0,0 km/h (0 Bft) NO 315 0 min 0 W/m 3,0 C 5,3 C 0,0 km/h (0 Bft)
27/01/2012 18:30 4,8 C 85 % 1024,0 hPa 0,0 mm 0,0 km/h (0 Bft) NO 315 0 min 0 W/m 2,5 C 4,8 C 0,0 km/h (0 Bft)
27/01/2012 18:40 4,4 C 86 % 1024,0 hPa 0,0 mm 0,0 km/h (0 Bft) NO 315 0 min 0 W/m 2,3 C 4,4 C 0,0 km/h (0 Bft)
27/01/2012 18:50 3,9 C 86 % 1024,0 hPa 0,0 mm 0,0 km/h (0 Bft) NO 315 0 min 0 W/m 1,8 C 3,9 C 0,0 km/h (0 Bft)
27/01/2012 19:00 3,5 C 87 % 1024,0 hPa 0,0 mm 0,0 km/h (0 Bft) NO 315 0 min 0 W/m 1,5 C 3,5 C 0,0 km/h (0 Bft)
27/01/2012 19:10 3,1 C 87 % 1024,1 hPa 0,0 mm 0,0 km/h (0 Bft) NO 315 0 min 0 W/m 1,2 C 3,1 C 0,0 km/h (0 Bft)
27/01/2012 19:20 2,8 C 88 % 1024,1 hPa 0,0 mm 0,0 km/h (0 Bft) NO 315 0 min 0 W/m 1,0 C 2,8 C 0,0 km/h (0 Bft)
27/01/2012 19:30 2,4 C 88 % 1024,2 hPa 0,0 mm 0,0 km/h (0 Bft) NO 315 0 min 0 W/m 0,6 C 2,4 C 0,0 km/h (0 Bft)
27/01/2012 19:40 2,1 C 88 % 1024,3 hPa 0,0 mm 0,0 km/h (0 Bft) NO 315 0 min 0 W/m 0,3 C 2,1 C 0,0 km/h (0 Bft)
27/01/2012 19:50 1,8 C 89 % 1024,4 hPa 0,0 mm 0,0 km/h (0 Bft) NO 315 0 min 0 W/m 0,2 C 1,8 C 0,0 km/h (0 Bft)
27/01/2012 20:00 1,6 C 89 % 1024,5 hPa 0,0 mm 0,0 km/h (0 Bft) NO 315 0 min 0 W/m -0,0 C 1,6 C 0,0 km/h (0 Bft)
27/01/2012 20:10 1,5 C 89 % 1024,5 hPa 0,0 mm 0,0 km/h (0 Bft) NO 315 0 min 0 W/m -0,1 C 1,5 C 0,0 km/h (0 Bft)
27/01/2012 20:20 1,4 C 89 % 1024,5 hPa 0,0 mm 0,0 km/h (0 Bft) NO 315 0 min 0 W/m -0,2 C 1,4 C 0,0 km/h (0 Bft)
27/01/2012 20:30 1,3 C 90 % 1024,5 hPa 0,0 mm 0,0 km/h (0 Bft) NO 315 0 min 0 W/m -0,2 C 1,3 C 0,0 km/h (0 Bft)
27/01/2012 20:40 1,1 C 90 % 1024,5 hPa 0,0 mm 0,0 km/h (0 Bft) NO 315 0 min 0 W/m -0,4 C 1,1 C 0,0 km/h (0 Bft)
27/01/2012 20:50 1,1 C 90 % 1024,6 hPa 0,0 mm 0,0 km/h (0 Bft) NO 315 0 min 0 W/m -0,4 C 1,1 C 0,0 km/h (0 Bft)
27/01/2012 21:00 1,1 C 91 % 1024,7 hPa 0,0 mm 0,0 km/h (0 Bft) NO 315 0 min 0 W/m -0,2 C 1,1 C 0,0 km/h (0 Bft)
27/01/2012 21:10 0,9 C 91 % 1024,7 hPa 0,0 mm 0,0 km/h (0 Bft) NO 315 0 min 0 W/m -0,4 C 0,9 C 0,0 km/h (0 Bft)
27/01/2012 21:20 0,9 C 92 % 1024,8 hPa 0,0 mm 0,0 km/h (0 Bft) NO 315 0 min 0 W/m -0,2 C 0,9 C 0,0 km/h (0 Bft)
27/01/2012 21:30 1,1 C 92 % 1024,8 hPa 0,0 mm 0,0 km/h (0 Bft) NO 315 0 min 0 W/m -0,1 C 1,1 C 0,0 km/h (0 Bft)
27/01/2012 21:40 0,9 C 92 % 1024,8 hPa 0,0 mm 0,0 km/h (0 Bft) NO 315 0 min 0 W/m -0,2 C 0,9 C 0,0 km/h (0 Bft)
27/01/2012 21:50 0,9 C 92 % 1024,8 hPa 0,0 mm 0,0 km/h (0 Bft) NO 315 0 min 0 W/m -0,2 C 0,9 C 0,0 km/h (0 Bft)
27/01/2012 22:00 0,8 C 91 % 1024,8 hPa 0,0 mm 0,0 km/h (0 Bft) NO 315 0 min 0 W/m -0,5 C 0,8 C 0,0 km/h (0 Bft)
27/01/2012 22:10 0,6 C 91 % 1024,8 hPa 0,0 mm 0,0 km/h (0 Bft) NO 315 0 min 0 W/m -0,7 C 0,6 C 0,0 km/h (0 Bft)
27/01/2012 22:20 0,5 C 91 % 1024,9 hPa 0,0 mm 0,0 km/h (0 Bft) NO 315 0 min 0 W/m -0,8 C 0,5 C 0,0 km/h (0 Bft)
27/01/2012 22:30 0,4 C 91 % 1025,0 hPa 0,0 mm 0,0 km/h (0 Bft) NO 315 0 min 0 W/m -0,9 C 0,4 C 0,0 km/h (0 Bft)
27/01/2012 22:40 0,3 C 91 % 1025,0 hPa 0,0 mm 0,0 km/h (0 Bft) NO 315 0 min 0 W/m -1,0 C 0,3 C 0,0 km/h (0 Bft)
27/01/2012 22:50 0,1 C 92 % 1025,0 hPa 0,0 mm 0,0 km/h (0 Bft) NO 315 0 min 0 W/m -1,0 C 0,1 C 0,0 km/h (0 Bft)
_ Min-Heure 09:20 17:40 00:00 - 22:50 - - - - 09:20 09:20 22:50
Minimum _ -1,1 C 82 % 1019,2 hPa - 0,0 km/h (0 Bft) - - - - -1,8 C -1,1 C 0,0 km/h (0 Bft)
_ Max-Heure 15:40 12:40 22:50 04:30 07:40 - - 17:40 22:50 15:30 15:40 16:50
Maximum _ 8,8 C 95 % 1025,0 hPa 0,1 mm 2,9 km/h
E-SE (1 Bft)
- - 2 min 0 W/m 6,6 C 8,8 C 4,3 km/h
S-SO (1 Bft)
Moyenne _ 2,9 C 92 % 1022,5 hPa #0,1 mm 0,1 km/h (0 Bft) E-SE - #1:50 h 0 W/m 1,6 C 2,9 C 0,4 km/h (0 Bft)
Saint Bonnet de Bellac- Haute Vienne - France